Regional Weather Roundup
Issued by NWS

Home | Current Version | Previous Version | Graphics & Text | Print | Product List | Glossary Off
Versions: 1 2 3 4 5 6 7 8 9 10 11 12 13 14 15 16 17 18 19 20 21 22 23 24 25 26 27 28 29 30 31 32 33 34 35 36 37 38 39 40 41 42 43 44 45 46 47 48 49 50

000
ASUS43 KTOP 250708
RWRKS

WEATHER ROUNDUP FOR KANSAS
NATIONAL WEATHER SERVICE GOODLAND KS
200 AM CDT SUN SEP 25 2016

NOTE:  "FAIR" INDICATES FEW OR NO CLOUDS BELOW 12,000 FEET WITH NO
SIGNIFICANT WEATHER AND/OR OBSTRUCTIONS TO VISIBILITY.

KSZ001>006-013>018-027>032-041>047-250800-
NORTHWEST KANSAS

CITY           SKY/WX    TMP DP  RH WIND       PRES   REMARKS
GOODLAND       CLEAR     50  42  74 NW9       30.21R
HAYS           CLOUDY    63  54  72 W5        30.05R VSB<1/4
HILL CITY      CLEAR     57  47  69 N14       30.12R HAZE
RUSSELL        CLOUDY    64  63  96 SW7       30.02S
$$

KSZ061>065-074>080-084>089-250800-
SOUTHWEST KANSAS

CITY           SKY/WX    TMP DP  RH WIND       PRES   REMARKS
DODGE CITY     FOG       59  58  96 CALM      30.07S VSB 1/4
ELKHART          N/A     58  45  62 NE6         N/A
GARDEN CITY    CLEAR     57  48  72 NE8       30.09R
GREAT BEND     PTCLDY    64  55  72 W8        30.04R
LIBERAL        CLOUDY    64  59  82 NE7       30.08R VSB 1/4
PRATT          CLOUDY    62  61  97 CALM      30.04S
$$

KSZ066>073-081>083-090>101-250800-
SOUTHEAST KANSAS

CITY           SKY/WX    TMP DP  RH WIND       PRES   REMARKS
CHANUTE        HVY RAIN  68  67  96 N7        30.03F FOG
COFFEYVILLE    CLOUDY    69  67  93 E8        30.02F
HUTCHINSON     CLOUDY    67  65  93 S9        30.02S
MEDICINE LODGE   N/A     66  65  96 N6          N/A
NEWTON         LGT RAIN N/A N/A N/A SE3       30.04F
PARSONS        CLOUDY    68  67  96 NE3       30.04F
WICHITA INTL   LGT RAIN  68  66  93 NW3       30.02S FOG
WICHITA JABRA  LGT RAIN  67  67 100 S3        30.03F
WICHITA MCCONL CLOUDY    66  66 100 W2        30.03R
WINFIELD       CLOUDY    68  68 100 N5        30.01R
$$

KSZ007>012-019>026-033>040-048>060-102>105-250800-
NORTHEAST KANSAS

CITY           SKY/WX    TMP DP  RH WIND       PRES   REMARKS
CONCORDIA      CLOUDY    67  67 100 S7        30.01R
EMPORIA        PTCLDY    67  66  97 SE6       30.03F
LAWRENCE       LGT RAIN  69  69 100 SE7       30.02R
MANHATTAN      CLOUDY    68  67  96 S5        30.01S
MARYSVILLE     CLOUDY    68  68 100 S8        30.01R
OLATHE IND     RAIN      68  66  93 SE10      30.03F
OLATHE EXE     LGT RAIN  67  66  97 SW5       30.04S FOG
SALINA         CLOUDY    69  67  93 S3        30.03R
TOPEKA BILLARD LGT RAIN  69  67  93 SW6       30.02R
TOPEKA FORBES    N/A    N/A N/A N/A MISG      30.02S
$$




USA.gov is the U.S. government's official web portal to all federal, state and local government web resources and services.